Time,TemperatureF,DewpointF,PressureIn,WindDirection,WindDirectionDegrees,WindSpeedMPH,WindSpeedGustMPH,Humidity,HourlyPrecipIn,Conditions,Clouds,dailyrainin,SolarRadiationWatts/m^2,SoftwareType,DateUTC
2017-05-25 00:03:00,65.3,64.1,30.02,West,270,4.6,4.6,96,0.00,CLR,,0.00,0.0,WeatherDisplay:10.37,2017-05-24 22:03:00,
2017-05-25 00:08:00,65.3,64.1,30.02,West,270,4.6,4.6,96,0.00,CLR,,0.00,9020.3,WeatherDisplay:10.37,2017-05-24 22:08:00,
2017-05-25 00:13:00,64.6,63.4,30.01,SW,225,3.5,3.5,96,0.00,CLR,,0.00,0.0,WeatherDisplay:10.37,2017-05-24 22:13:00,
2017-05-25 00:18:00,64.6,63.7,30.02,SW,225,3.5,3.5,97,0.00,CLR,,0.00,0.0,WeatherDisplay:10.37,2017-05-24 22:18:00,
2017-05-25 00:23:00,64.4,63.5,30.02,SW,225,3.5,3.5,97,0.00,CLR,,0.00,0.0,WeatherDisplay:10.37,2017-05-24 22:23:00,
2017-05-25 00:28:00,64.2,63.4,30.02,SW,225,1.2,1.6,97,0.00,CLR,,0.00,9020.3,WeatherDisplay:10.37,2017-05-24 22:28:00,
2017-05-25 00:33:00,64.0,63.2,30.02,SW,225,3.5,3.5,97,0.00,CLR,,0.00,0.0,WeatherDisplay:10.37,2017-05-24 22:33:00,
2017-05-25 00:38:00,64.0,63.2,30.02,SW,225,3.5,3.5,97,0.00,CLR,,0.00,0.0,WeatherDisplay:10.37,2017-05-24 22:38:00,
2017-05-25 00:43:00,63.9,63.0,30.02,NW,315,3.5,3.5,97,0.00,CLR,,0.00,0.0,WeatherDisplay:10.37,2017-05-24 22:43:00,
2017-05-25 00:48:00,63.7,62.8,30.02,SW,225,3.5,3.5,97,0.00,CLR,,0.00,0.0,WeatherDisplay:10.37,2017-05-24 22:48:00,
2017-05-25 00:53:00,63.5,62.6,30.01,NW,315,3.8,3.8,97,0.00,CLR,,0.00,9020.3,WeatherDisplay:10.37,2017-05-24 22:53:00,
2017-05-25 00:58:00,63.3,62.5,30.01,SW,225,3.5,3.5,97,0.00,CLR,,0.00,0.0,WeatherDisplay:10.37,2017-05-24 22:58:00,
2017-05-25 01:03:00,63.1,62.3,30.01,SW,225,3.5,3.5,97,0.00,CLR,,0.00,0.0,WeatherDisplay:10.37,2017-05-24 23:03:00,
2017-05-25 01:08:00,62.8,61.9,30.01,NW,315,3.5,3.5,97,0.00,CLR,,0.00,8968.6,WeatherDisplay:10.37,2017-05-24 23:08:00,
2017-05-25 01:13:00,62.8,61.9,30.01,SW,225,4.6,4.6,97,0.00,CLR,,0.00,0.0,WeatherDisplay:10.37,2017-05-24 23:13:00,
2017-05-25 01:18:00,62.6,61.7,30.01,SW,225,4.6,4.6,97,0.00,CLR,,0.00,0.0,WeatherDisplay:10.37,2017-05-24 23:18:00,
2017-05-25 01:23:00,62.6,61.7,30.01,SW,225,3.5,3.5,97,0.00,CLR,,0.00,0.0,WeatherDisplay:10.37,2017-05-24 23:23:00,
2017-05-25 01:25:00,62.6,61.7,30.01,SW,225,3.5,3.5,97,0.00,CLR,,0.00,0.0,WeatherDisplay:10.37,2017-05-24 23:25:00,
2017-05-25 01:30:00,62.4,61.8,30.01,West,270,3.5,3.5,98,0.00,CLR,,0.00,0.0,WeatherDisplay:10.37,2017-05-24 23:30:00,
2017-05-25 01:35:00,62.2,61.7,30.01,SW,225,3.5,3.5,98,0.00,CLR,,0.00,0.0,WeatherDisplay:10.37,2017-05-24 23:35:00,
2017-05-25 01:40:00,62.1,61.5,30.01,SW,225,3.5,3.5,98,0.00,CLR,,0.00,0.0,WeatherDisplay:10.37,2017-05-24 23:40:00,
2017-05-25 01:45:00,61.9,61.3,30.01,West,270,4.6,4.6,98,0.00,CLR,,0.00,0.0,WeatherDisplay:10.37,2017-05-24 23:45:00,
2017-05-25 01:50:00,61.7,61.1,30.00,SW,225,2.3,2.3,98,0.00,CLR,,0.00,0.0,WeatherDisplay:10.37,2017-05-24 23:50:00,
2017-05-25 01:55:00,61.7,61.1,30.00,SW,225,3.8,3.8,98,0.00,CLR,,0.00,8916.8,WeatherDisplay:10.37,2017-05-24 23:55:00,
2017-05-25 02:00:00,61.5,61.0,30.00,SW,225,3.5,3.5,98,0.00,CLR,,0.00,8916.8,WeatherDisplay:10.37,2017-05-25 00:00:00,
2017-05-25 02:05:00,61.5,61.0,30.00,SW,225,3.5,3.5,98,0.00,CLR,,0.00,0.0,WeatherDisplay:10.37,2017-05-25 00:05:00,
2017-05-25 02:10:00,61.3,60.8,30.00,SW,225,3.5,3.5,98,0.00,CLR,,0.00,0.0,WeatherDisplay:10.37,2017-05-25 00:10:00,
2017-05-25 02:15:00,61.2,60.6,30.00,West,270,3.5,3.5,98,0.00,CLR,,0.00,0.0,WeatherDisplay:10.37,2017-05-25 00:15:00,
2017-05-25 02:20:00,61.3,60.8,29.99,West,270,3.5,3.5,98,0.00,CLR,,0.00,0.0,WeatherDisplay:10.37,2017-05-25 00:20:00,
2017-05-25 02:25:00,61.2,60.6,29.99,NW,315,3.5,3.5,98,0.00,CLR,,0.00,0.0,WeatherDisplay:10.37,2017-05-25 00:25:00,
2017-05-25 02:30:00,61.2,60.6,29.99,NW,315,3.5,3.5,98,0.00,CLR,,0.00,0.0,WeatherDisplay:10.37,2017-05-25 00:30:00,
2017-05-25 02:35:00,61.0,60.4,29.99,SW,225,3.5,3.5,98,0.00,CLR,,0.00,0.0,WeatherDisplay:10.37,2017-05-25 00:35:00,
2017-05-25 02:40:00,60.8,60.2,29.99,West,270,3.5,3.5,98,0.00,CLR,,0.00,0.0,WeatherDisplay:10.37,2017-05-25 00:40:00,
2017-05-25 02:45:00,60.6,60.3,29.99,West,270,4.6,4.6,99,0.00,CLR,,0.00,0.0,WeatherDisplay:10.37,2017-05-25 00:45:00,
2017-05-25 02:50:00,60.6,60.3,29.99,SW,225,3.5,3.5,99,0.00,CLR,,0.00,0.0,WeatherDisplay:10.37,2017-05-25 00:50:00,
2017-05-25 02:55:00,60.4,60.2,29.99,SW,225,3.8,3.8,99,0.00,CLR,,0.00,8813.2,WeatherDisplay:10.37,2017-05-25 00:55:00,
2017-05-25 03:00:00,60.4,60.2,29.98,West,270,3.5,3.5,99,0.00,CLR,,0.00,8813.2,WeatherDisplay:10.37,2017-05-25 01:00:00,
2017-05-25 03:05:00,60.3,60.0,29.99,West,270,2.3,2.3,99,0.00,CLR,,0.00,8813.2,WeatherDisplay:10.37,2017-05-25 01:05:00,
2017-05-25 03:10:00,60.3,60.0,29.98,West,270,3.5,3.5,99,0.00,CLR,,0.00,8813.2,WeatherDisplay:10.37,2017-05-25 01:10:00,
2017-05-25 03:15:00,60.1,59.8,29.98,West,270,3.5,3.5,99,0.00,CLR,,0.00,8813.2,WeatherDisplay:10.37,2017-05-25 01:15:00,
2017-05-25 03:20:00,60.1,59.8,29.98,West,270,3.5,3.5,99,0.00,CLR,,0.00,0.0,WeatherDisplay:10.37,2017-05-25 01:20:00,
2017-05-25 03:25:00,60.1,59.8,29.98,West,270,3.5,3.5,99,0.00,CLR,,0.00,8813.2,WeatherDisplay:10.37,2017-05-25 01:25:00,
2017-05-25 03:30:00,59.9,59.6,29.98,SW,225,3.5,3.5,99,0.00,CLR,,0.00,8813.2,WeatherDisplay:10.37,2017-05-25 01:30:00,
2017-05-25 03:35:00,59.7,59.4,29.98,NW,315,3.5,3.5,99,0.00,CLR,,0.00,8813.2,WeatherDisplay:10.37,2017-05-25 01:35:00,
2017-05-25 03:40:00,59.7,59.4,29.98,SW,225,4.6,4.6,99,0.00,CLR,,0.00,8813.2,WeatherDisplay:10.37,2017-05-25 01:40:00,
2017-05-25 03:45:00,59.7,59.4,29.98,SW,225,4.6,4.6,99,0.00,CLR,,0.00,8813.2,WeatherDisplay:10.37,2017-05-25 01:45:00,
2017-05-25 03:50:00,59.7,59.4,29.98,West,270,3.5,3.5,99,0.00,CLR,,0.00,0.0,WeatherDisplay:10.37,2017-05-25 01:50:00,
2017-05-25 03:55:00,59.4,59.1,29.98,West,270,3.5,3.5,99,0.00,CLR,,0.00,8761.7,WeatherDisplay:10.37,2017-05-25 01:55:00,
2017-05-25 04:01:00,59.2,58.9,29.97,West,270,3.5,3.5,99,0.00,CLR,,0.00,0.0,WeatherDisplay:10.37,2017-05-25 02:01:00,
2017-05-25 04:06:00,59.2,58.9,29.98,West,270,3.8,3.8,99,0.00,CLR,,0.00,8761.7,WeatherDisplay:10.37,2017-05-25 02:06:00,
2017-05-25 04:11:00,59.2,58.9,29.98,SW,225,3.5,3.5,99,0.00,CLR,,0.00,0.0,WeatherDisplay:10.37,2017-05-25 02:11:00,
2017-05-25 04:16:00,59.2,58.9,29.97,West,270,2.3,2.3,99,0.00,CLR,,0.00,0.0,WeatherDisplay:10.37,2017-05-25 02:16:00,
2017-05-25 04:21:00,59.2,58.9,29.98,SW,225,3.5,3.5,99,0.00,CLR,,0.00,0.0,WeatherDisplay:10.37,2017-05-25 02:21:00,
2017-05-25 04:26:00,58.8,58.5,29.98,West,270,2.3,2.3,99,0.00,CLR,,0.00,0.0,WeatherDisplay:10.37,2017-05-25 02:26:00,
2017-05-25 04:31:00,58.8,58.5,29.98,West,270,3.5,3.5,99,0.00,CLR,,0.00,8709.9,WeatherDisplay:10.37,2017-05-25 02:31:00,
2017-05-25 04:36:00,58.8,58.5,29.98,West,270,3.5,3.5,99,0.00,CLR,,0.00,0.0,WeatherDisplay:10.37,2017-05-25 02:36:00,
2017-05-25 04:41:00,58.8,58.5,29.97,SW,225,3.5,3.5,99,0.00,CLR,,0.00,0.0,WeatherDisplay:10.37,2017-05-25 02:41:00,
2017-05-25 04:46:00,58.6,58.4,29.98,SW,225,3.5,3.5,99,0.00,CLR,,0.00,0.0,WeatherDisplay:10.37,2017-05-25 02:46:00,
2017-05-25 04:51:00,58.6,58.4,29.98,SW,225,3.5,3.5,99,0.00,CLR,,0.00,0.0,WeatherDisplay:10.37,2017-05-25 02:51:00,
2017-05-25 04:56:00,58.5,58.2,29.97,West,270,3.5,3.5,99,0.00,CLR,,0.00,0.0,WeatherDisplay:10.37,2017-05-25 02:56:00,
2017-05-25 05:01:00,58.5,58.2,29.97,SW,225,3.5,3.5,99,0.00,CLR,,0.00,0.0,WeatherDisplay:10.37,2017-05-25 03:01:00,
2017-05-25 05:06:00,58.3,58.0,29.97,West,270,3.5,3.5,99,0.00,CLR,,0.00,0.0,WeatherDisplay:10.37,2017-05-25 03:06:00,
2017-05-25 05:11:00,58.3,58.0,29.97,SW,225,3.5,3.5,99,0.00,CLR,,0.00,0.0,WeatherDisplay:10.37,2017-05-25 03:11:00,
2017-05-25 05:16:00,58.1,57.8,29.97,West,270,4.6,4.6,99,0.00,CLR,,0.00,0.0,WeatherDisplay:10.37,2017-05-25 03:16:00,
2017-05-25 05:21:00,57.9,57.6,29.97,SW,225,3.5,3.5,99,0.00,CLR,,0.00,0.0,WeatherDisplay:10.37,2017-05-25 03:21:00,
2017-05-25 05:26:00,58.1,57.8,29.97,SW,225,2.3,2.3,99,0.00,CLR,,0.00,0.0,WeatherDisplay:10.37,2017-05-25 03:26:00,
2017-05-25 05:31:00,57.9,57.6,29.96,West,270,3.5,3.5,99,0.00,CLR,,0.00,0.0,WeatherDisplay:10.37,2017-05-25 03:31:00,
2017-05-25 05:36:00,57.9,57.6,29.97,SW,225,3.5,3.5,99,0.00,CLR,,0.00,0.0,WeatherDisplay:10.37,2017-05-25 03:36:00,
2017-05-25 05:41:00,57.9,57.6,29.97,SW,225,3.5,3.5,99,0.00,CLR,,0.00,0.0,WeatherDisplay:10.37,2017-05-25 03:41:00,
2017-05-25 05:46:00,57.7,57.5,29.97,NW,315,3.5,3.5,99,0.00,CLR,,0.00,0.0,WeatherDisplay:10.37,2017-05-25 03:46:00,
2017-05-25 05:51:00,57.7,57.5,29.97,West,270,0.0,0.0,99,0.00,CLR,,0.00,0.0,WeatherDisplay:10.37,2017-05-25 03:51:00,
2017-05-25 05:56:00,57.7,57.5,29.97,SW,225,0.0,0.0,99,0.00,CLR,,0.00,8606.1,WeatherDisplay:10.37,2017-05-25 03:56:00,
2017-05-25 06:01:00,57.6,57.3,29.97,West,270,0.0,0.0,99,0.00,CLR,,0.00,19.0,WeatherDisplay:10.37,2017-05-25 04:01:00,